星链-5821 (STARLINK-5821 )

导读 | 星芒AI

STARLINK-5821 是 SpaceX 星链(Starlink)卫星互联网项目中的一颗低轨通信卫星。它属于星链计划的第二批部署卫星(5G 系列),于 2021 年发射,旨在为全球用户提供高速、低延迟的宽带互联网服务。该卫星运行在约 550 公里的轨道高度,采用先进的相控阵天线和激光通信技术,以提升网络性能和卫星间通信效率。作为星链星座的一部分,STARLINK-5821 有助于扩大覆盖范围,特别是在偏远和网络基础设施薄弱的地区。

基本信息
目录编号:
57069
目录名称:
STARLINK-5821
国际标识:
2023-088X
轨道中心:
EARTH
卫星名称:
星链-5821
卫星全名:
星链-5821 (STARLINK-5821 )
卫星状态:
在轨 (已飞行866 天)
发射日期:
2023-06-22 UTC
国别 :
美国 (US)
星等 :
--
轨道信息
数据来源 国际轨道数据 AOE轨道数据
星历时间 2025-11-04T08:44:11+0800
11小时前
查看轨道信息
2025-10-30T08:00:00+0800
5天前
查看轨道信息
半长轴 6937.217km 6937.215km
偏心率 0.0001175 0.00009
轨道倾角 43.004° 43.010°
近地点辐角 273.012° 219.167°
升交点赤经 57.579° 84.922°
平近点角 87.058° 258.038°
近地点 558.266km 558.455km
远地点 559.898km 559.705km
周期 95.838分钟 95.838分钟
每日圈数 15.02536 15.025366
详细信息
固有亮度:
5
最大亮度:
2.4
卫星平台:
Starlink v1.5
覆盖范围:
全球
运营商:
太空探索技术公司
运营商所在国:
美国
制造商(研发单位):
太空探索技术公司
制造商所在国:
美国
使用方式:
暂无
卫星简介
星链(Starlink)计划是由太空探索技术公司(SpaceX)提出的一个巨型低轨卫星互联网星座项目,计划在2019年至2024年间在太空搭建由约1.2万颗卫星组成的“星链”网络,其中1584颗将部署在地球上空550千米处的近地轨道,并从2020年开始工作。该卫星仍在工作。
2D轨道图
3D轨道图
轨道高度分析图
轨道倾角分析图
轨道综合分析图
查看轨道综合分析图